[TLELIST] Archives

 

[list_settings.list_name] Current TLEs

May 2nd 2022 PST

HST 1 20580U 90037B 22122.17169399 .00002834 00000-0 15745-3 0 9990 2 20580 28.4693 115.4276 0002420 253.7645 160.3105 15.10372453559472 ISS (ZARYA) 1 25544U 98067A 22122.21320811 .00014099 00000-0 25538-3 0 9996 2 25544 51.6449 204.2771 0006501 54.9466 332.1981 15.49896113338053 CXO 1 25867U 99040B 22123.09007077 .00000675 00000-0 00000+0 0 9997 2 25867 46.6395 238.3984 8772466 232.3242 359.8553 0.37804797 22780 ____________________________________________________________________ These 2-Line ...Continue Reading

[list_settings.list_name] Current TLEs

May 1st 2022 PST

HST 1 20580U 90037B 22120.73848498 .00003280 00000-0 18399-3 0 9998 2 20580 28.4693 124.9218 0002442 237.7559 288.0318 15.10364849558993 ISS (ZARYA) 1 25544U 98067A 22121.31832907 .00014752 00000-0 26705-3 0 9993 2 25544 51.6437 208.7091 0006363 53.5315 17.2711 15.49871444337914 CXO 1 25867U 99040B 22123.09007077 .00000675 00000-0 00000+0 0 9997 2 25867 46.6395 238.3984 8772466 232.3242 359.8553 0.37804797 22780 ____________________________________________________________________ These 2-Line ...Continue Reading

[list_settings.list_name] Current TLEs

April 30th 2022 PST

HST 1 20580U 90037B 22119.47574000 .00003336 00000-0 18740-3 0 9994 2 20580 28.4692 133.2867 0002469 222.7769 263.4650 15.10356633558809 ISS (ZARYA) 1 25544U 98067A 22120.15851970 .00015633 00000-0 28282-3 0 9996 2 25544 51.6439 214.4541 0006397 50.6644 24.7416 15.49837950337739 CXO 1 25867U 99040B 22120.44554856 .00000624 00000-0 00000+0 0 9999 2 25867 46.7152 238.5796 8767931 232.2170 359.8828 0.37804302 22771 ____________________________________________________________________ These 2-Line ...Continue Reading

[list_settings.list_name] Current TLEs

April 29th 2022 PST

HST 1 20580U 90037B 22118.48357440 .00003077 00000-0 17200-3 0 9993 2 20580 28.4691 139.8589 0002535 210.0236 270.8411 15.10349841558657 ISS (ZARYA) 1 25544U 98067A 22119.39284971 .00016594 00000-0 29995-3 0 9990 2 25544 51.6433 218.2439 0006427 47.6506 72.9707 15.49811431337619 CXO 1 25867U 99040B 22120.44554856 .00000624 00000-0 00000+0 0 9999 2 25867 46.7152 238.5796 8767931 232.2170 359.8828 0.37804302 22771 ____________________________________________________________________ These 2-Line ...Continue Reading

[list_settings.list_name] Current TLEs

April 28th 2022 PST

HST 1 20580U 90037B 22118.13637899 .00003158 00000-0 17686-3 0 9992 2 20580 28.4691 142.1586 0002577 206.0802 183.2501 15.10348198558865 ISS (ZARYA) 1 25544U 98067A 22118.35856524 .00015398 00000-0 27935-3 0 9997 2 25544 51.6436 223.3665 0006329 45.3831 60.8736 15.49771140337459 CXO 1 25867U 99040B 22120.44554856 .00000624 00000-0 00000+0 0 9999 2 25867 46.7152 238.5796 8767931 232.2170 359.8828 0.37804302 22771 ____________________________________________________________________ These 2-Line ...Continue Reading

[list_settings.list_name] Current TLEs

April 27th 2022 PST

HST 1 20580U 90037B 22116.84076576 .00002688 00000-0 14892-3 0 9990 2 20580 28.4692 150.7410 0002612 192.1615 338.6370 15.10340157558670 ISS (ZARYA) 1 25544U 98067A 22117.32502152 .00014907 00000-0 27105-3 0 9992 2 25544 51.6433 228.4854 0006291 42.2571 53.9282 15.49736983337294 CXO 1 25867U 99040B 22117.80215601 .00000701 00000-0 00000-0 0 9994 2 25867 46.7798 238.7405 8761990 232.1324 0.0443 0.37803654 11613 ____________________________________________________________________ These 2-Line ...Continue Reading

[list_settings.list_name] Current TLEs

April 26th 2022 PST

HST 1 20580U 90037B 22115.84898196 .00002325 00000-0 12738-3 0 9994 2 20580 28.4692 157.3105 0002654 181.3640 346.1952 15.10334209558253 ISS (ZARYA) 1 25544U 98067A 22116.34680543 .00014149 00000-0 25797-3 0 9997 2 25544 51.6437 233.3316 0006356 38.1019 357.0097 15.49705708337146 CXO 1 25867U 99040B 22117.80215601 .00000701 00000-0 00000-0 0 9994 2 25867 46.7798 238.7405 8761990 232.1324 0.0443 0.37803654 11613 ____________________________________________________________________ These 2-Line ...Continue Reading

[list_settings.list_name] Current TLEs

April 25th 2022 PST

HST 1 20580U 90037B 22114.51623878 .00002509 00000-0 13835-3 0 9993 2 20580 28.4692 166.1383 0002724 167.2635 299.5368 15.10328272558057 ISS (ZARYA) 1 25544U 98067A 22115.38385056 .00013206 00000-0 24161-3 0 9998 2 25544 51.6439 238.1008 0006263 35.6048 23.7398 15.49676524336996 CXO 1 25867U 99040B 22115.15802053 .00000842 00000-0 00000+0 0 9998 2 25867 46.8210 238.8699 8756775 232.0780 0.0590 0.37807102 22751 ____________________________________________________________________ These 2-Line ...Continue Reading

[list_settings.list_name] Current TLEs

April 24th 2022 PST

HST 1 20580U 90037B 22114.24202251 .00002661 00000-0 14740-3 0 9996 2 20580 28.4692 167.9544 0002764 165.0947 247.7861 15.10327463558279 ISS (ZARYA) 1 25544U 98067A 22114.36001664 -.00007246 00000-0 -12056-3 0 9994 2 25544 51.6435 243.1661 0006112 29.2843 74.5443 15.49635339336835 CXO 1 25867U 99040B 22115.15802053 .00000842 00000-0 00000+0 0 9998 2 25867 46.8210 238.8699 8756775 232.0780 0.0590 0.37807102 22751 ____________________________________________________________________ These 2-Line ...Continue Reading

[list_settings.list_name] Current TLEs

April 23rd 2022 PST

HST 1 20580U 90037B 22112.87494834 .00002746 00000-0 15244-3 0 9997 2 20580 28.4692 177.0096 0002813 150.9998 14.1253 15.10320947558076 ISS (ZARYA) 1 25544U 98067A 22113.37981659 .00009283 00000-0 16916-3 0 9995 2 25544 51.6429 248.0214 0005250 51.0937 340.4886 15.50210836336687 CXO 1 25867U 99040B 22115.15802053 .00000842 00000-0 00000+0 0 9998 2 25867 46.8210 238.8699 8756775 232.0780 0.0590 0.37807102 22751 ____________________________________________________________________ These 2-Line ...Continue Reading
  • This mailing list is a public mailing list - anyone may join or leave, at any time.
  • This mailing list is announce-only.

International Space Station (ISS) / Hubble Space Telescope (HST) / Chandra X-Ray Observatory Orbital Data via EMAIL

Privacy Policy:

Private list